^^
Saratoga-Weather Station Historical Data
Daily Summary for June 21, 2020 Units:  English    Metric   Both
Daily Weekly Monthly Yearly Custom
  High: Low: Average:
Temperature: 61.5 °F 50.4 °F 54.5 °F
Dew Point: 38.1 °F 31.5 °F 33.6 °F
Humidity: 52% 38% 45%
Wind Speed: 12.1mph 0.9mph 4.3mph
Wind Gust: 17mph - -
Wind- - East
Pressure: 29.9 in 29.8 in -
Precipitation: 0 in    
Historical Graphs
 
 
Tabular Data for June 21, 2020
Time Temperature Dew Point Pressure Wind Wind Speed Wind Gust Humidity Rainfall Rate (Hourly) solar
00:02 58.5 °F 33.6 °F 29.9 in NE 6.9 mph 10 mph 39% 0 in 0 W/m2
00:07 58.5 °F 32.9 °F 29.9 in East 0.9 mph 10 mph 38% 0 in 0 W/m2
00:12 58.3 °F 32.7 °F 29.9 in ESE 2.9 mph 9 mph 38% 0 in 0 W/m2
00:17 58.3 °F 32.7 °F 29.9 in SE 0.9 mph 5 mph 38% 0 in 0 W/m2
00:22 58.3 °F 32.7 °F 29.9 in ENE 2 mph 7 mph 38% 0 in 0 W/m2
00:27 58.3 °F 32.7 °F 29.9 in ENE 8.1 mph 9 mph 38% 0 in 0 W/m2
00:32 58.1 °F 32.5 °F 29.9 in ESE 2 mph 3 mph 38% 0 in 0 W/m2
00:37 57.9 °F 33.1 °F 29.9 in ENE 0.9 mph 4 mph 39% 0 in 0 W/m2
00:42 57.7 °F 32.4 °F 29.9 in ENE 0.9 mph 9 mph 38% 0 in 0 W/m2
00:47 57.6 °F 32.2 °F 29.9 in SSE 4 mph 6 mph 38% 0 in 0 W/m2
00:52 57.4 °F 32 °F 29.9 in ENE 2 mph 9 mph 38% 0 in 0 W/m2
00:57 57.4 °F 32 °F 29.9 in ENE 4.9 mph 10 mph 38% 0 in 0 W/m2
01:02 57.4 °F 32 °F 29.9 in SE 4 mph 4 mph 38% 0 in 0 W/m2
01:07 57 °F 31.6 °F 29.9 in NE 4 mph 8 mph 38% 0 in 0 W/m2
01:12 57 °F 31.6 °F 29.9 in ESE 4 mph 8 mph 38% 0 in 0 W/m2
01:17 56.8 °F 32.2 °F 29.9 in ENE 8.9 mph 12 mph 39% 0 in 0 W/m2
01:22 56.7 °F 32 °F 29.9 in East 2 mph 6 mph 39% 0 in 0 W/m2
01:27 56.7 °F 32 °F 29.9 in ENE 4 mph 7 mph 39% 0 in 0 W/m2
01:32 56.5 °F 31.8 °F 29.9 in ESE 8.9 mph 9 mph 39% 0 in 0 W/m2
01:37 56.1 °F 32.2 °F 29.9 in East 2.9 mph 5 mph 40% 0 in 0 W/m2
01:42 55.9 °F 32 °F 29.9 in ENE 6 mph 7 mph 40% 0 in 0 W/m2
01:47 55.9 °F 32 °F 29.9 in ENE 4.9 mph 5 mph 40% 0 in 0 W/m2
01:52 55.8 °F 31.8 °F 29.9 in ESE 2 mph 7 mph 40% 0 in 0 W/m2
01:57 55.6 °F 32.2 °F 29.9 in East 2.9 mph 4 mph 41% 0 in 0 W/m2
02:02 55.6 °F 32.2 °F 29.9 in East 4 mph 9 mph 41% 0 in 0 W/m2
02:07 55.4 °F 32 °F 29.9 in East 2.9 mph 8 mph 41% 0 in 0 W/m2
02:12 55.2 °F 32 °F 29.9 in SE 4.9 mph 9 mph 41% 0 in 0 W/m2
02:17 55.2 °F 32 °F 29.9 in ENE 4 mph 6 mph 41% 0 in 0 W/m2
02:22 55 °F 31.8 °F 29.9 in ENE 2.9 mph 11 mph 41% 0 in 0 W/m2
02:27 55 °F 32.4 °F 29.9 in ENE 2 mph 5 mph 42% 0 in 0 W/m2
02:32 54.9 °F 32.2 °F 29.9 in SSE 6 mph 9 mph 42% 0 in 0 W/m2
02:37 54.7 °F 32 °F 29.9 in ESE 8.1 mph 8 mph 42% 0 in 0 W/m2
02:42 54.5 °F 31.8 °F 29.9 in East 2.9 mph 9 mph 42% 0 in 0 W/m2
02:47 54.1 °F 31.5 °F 29.9 in ESE 4 mph 13 mph 42% 0 in 0 W/m2
02:52 54.1 °F 32.2 °F 29.9 in SE 4 mph 9 mph 43% 0 in 0 W/m2
02:57 54 °F 32 °F 29.9 in East 8.1 mph 10 mph 43% 0 in 0 W/m2
03:02 53.8 °F 31.8 °F 29.9 in SSE 4 mph 7 mph 43% 0 in 0 W/m2
03:07 53.8 °F 31.8 °F 29.9 in ENE 4 mph 10 mph 43% 0 in 0 W/m2
03:12 53.6 °F 31.6 °F 29.9 in SE 2 mph 10 mph 43% 0 in 0 W/m2
03:17 53.4 °F 32 °F 29.9 in SSE 2.9 mph 6 mph 44% 0 in 0 W/m2
03:22 53.2 °F 31.8 °F 29.9 in NE 4.9 mph 11 mph 44% 0 in 0 W/m2
03:27 53.2 °F 31.8 °F 29.9 in SE 2.9 mph 10 mph 44% 0 in 0 W/m2
03:32 53.2 °F 31.8 °F 29.9 in ESE 4 mph 9 mph 44% 0 in 0 W/m2
03:37 53.1 °F 31.6 °F 29.9 in East 2.9 mph 6 mph 44% 0 in 0 W/m2
03:42 53.1 °F 31.6 °F 29.9 in ENE 2 mph 9 mph 44% 0 in 0 W/m2
03:47 52.9 °F 31.6 °F 29.8 in SE 4.9 mph 8 mph 44% 0 in 0 W/m2
03:52 52.9 °F 32.2 °F 29.9 in NE 2.9 mph 5 mph 45% 0 in 0 W/m2
03:57 52.7 °F 32 °F 29.9 in East 4 mph 9 mph 45% 0 in 0 W/m2
04:02 52.5 °F 31.8 °F 29.9 in ENE 4.9 mph 8 mph 45% 0 in 0 W/m2
04:07 52.5 °F 31.8 °F 29.9 in SE 0.9 mph 7 mph 45% 0 in 0 W/m2
04:12 52.3 °F 31.6 °F 29.8 in East 4 mph 5 mph 45% 0 in 0 W/m2
04:17 52.3 °F 32.2 °F 29.8 in ENE 2.9 mph 7 mph 46% 0 in 0 W/m2
04:23 52.3 °F 31.6 °F 29.8 in ESE 8.9 mph 9 mph 45% 0 in 0 W/m2
04:28 52.3 °F 31.6 °F 29.8 in ESE 4 mph 8 mph 45% 0 in 0 W/m2
04:33 52.2 °F 31.5 °F 29.8 in East 6.9 mph 8 mph 45% 0 in 0 W/m2
04:38 52.2 °F 32 °F 29.8 in SE 2.9 mph 11 mph 46% 0 in 0 W/m2
04:43 52 °F 31.8 °F 29.8 in East 2.9 mph 10 mph 46% 0 in 0 W/m2
04:48 52 °F 31.8 °F 29.8 in ENE 2 mph 6 mph 46% 0 in 0 W/m2
04:53 51.8 °F 31.6 °F 29.8 in South 2.9 mph 9 mph 46% 0 in 0 W/m2
04:58 51.6 °F 32 °F 29.8 in NE 4 mph 9 mph 47% 0 in 0 W/m2
05:03 51.4 °F 31.8 °F 29.8 in SSE 10.1 mph 10 mph 47% 0 in 0 W/m2
05:08 51.4 °F 31.8 °F 29.8 in ESE 2.9 mph 8 mph 47% 0 in 0 W/m2
05:13 51.4 °F 31.8 °F 29.8 in ENE 4 mph 7 mph 47% 0 in 0 W/m2
05:18 51.4 °F 31.8 °F 29.8 in ESE 6 mph 6 mph 47% 0 in 0 W/m2
05:23 51.3 °F 31.6 °F 29.8 in East 6.9 mph 7 mph 47% 0 in 0 W/m2
05:28 51.3 °F 32.2 °F 29.8 in ESE 6.9 mph 7 mph 48% 0 in 0 W/m2
05:33 51.1 °F 32 °F 29.8 in ESE 6 mph 10 mph 48% 0 in 0 W/m2
05:38 51.1 °F 32 °F 29.8 in East 4 mph 10 mph 48% 0 in 0 W/m2
05:43 51.1 °F 32 °F 29.8 in ESE 2.9 mph 7 mph 48% 0 in 0 W/m2
05:48 50.9 °F 31.8 °F 29.8 in East 6.9 mph 7 mph 48% 0 in 0 W/m2
05:53 50.7 °F 32.2 °F 29.8 in ESE 2.9 mph 6 mph 49% 0 in 0 W/m2
05:58 50.7 °F 32.2 °F 29.8 in ESE 8.9 mph 9 mph 49% 0 in 0 W/m2
06:03 50.7 °F 32.2 °F 29.8 in East 2 mph 11 mph 49% 0 in 0 W/m2
06:08 50.7 °F 32.2 °F 29.8 in NE 4 mph 7 mph 49% 0 in 0 W/m2
06:13 50.5 °F 32 °F 29.8 in SSE 2 mph 11 mph 49% 0 in 0 W/m2
06:19 50.5 °F 32 °F 29.8 in ENE 4 mph 6 mph 49% 0 in 0 W/m2
06:24 50.5 °F 32 °F 29.8 in East 4 mph 11 mph 49% 0 in 0 W/m2
06:29 50.5 °F 32 °F 29.8 in SSE 2 mph 14 mph 49% 0 in 5 W/m2
06:34 50.4 °F 32.4 °F 29.8 in ESE 4 mph 9 mph 50% 0 in 7 W/m2
06:39 50.4 °F 32.4 °F 29.8 in East 2 mph 14 mph 50% 0 in 9 W/m2
06:44 50.4 °F 32.4 °F 29.8 in East 2.9 mph 5 mph 50% 0 in 12 W/m2
06:49 50.4 °F 32.4 °F 29.8 in NNE 6.9 mph 9 mph 50% 0 in 16 W/m2
06:54 50.5 °F 32.5 °F 29.8 in SE 2.9 mph 7 mph 50% 0 in 19 W/m2
06:59 50.5 °F 33.1 °F 29.8 in East 6 mph 7 mph 51% 0 in 25 W/m2
07:04 50.5 °F 33.1 °F 29.8 in East 2.9 mph 8 mph 51% 0 in 28 W/m2
07:09 50.5 °F 33.1 °F 29.8 in SSE 4 mph 5 mph 51% 0 in 32 W/m2
07:14 50.7 °F 32.7 °F 29.8 in ESE 2.9 mph 7 mph 50% 0 in 33 W/m2
07:19 50.7 °F 33.3 °F 29.8 in East 2 mph 9 mph 51% 0 in 37 W/m2
07:24 50.7 °F 33.3 °F 29.8 in ENE 2.9 mph 5 mph 51% 0 in 39 W/m2
07:29 50.7 °F 33.3 °F 29.9 in ESE 6.9 mph 11 mph 51% 0 in 40 W/m2
07:34 50.9 °F 33.4 °F 29.9 in ENE 2.9 mph 9 mph 51% 0 in 40 W/m2
07:39 50.9 °F 34 °F 29.9 in NE 4 mph 8 mph 52% 0 in 44 W/m2
07:44 51.1 °F 33.6 °F 29.9 in ENE 2 mph 11 mph 51% 0 in 54 W/m2
07:49 51.1 °F 33.6 °F 29.9 in East 4.9 mph 9 mph 51% 0 in 97 W/m2
07:54 51.3 °F 33.8 °F 29.9 in ESE 0.9 mph 12 mph 51% 0 in 90 W/m2
07:59 51.4 °F 34 °F 29.9 in SSE 4.9 mph 7 mph 51% 0 in 83 W/m2
08:04 51.4 °F 34 °F 29.9 in ENE 4 mph 9 mph 51% 0 in 162 W/m2
08:09 51.8 °F 34.2 °F 29.9 in ENE 2 mph 10 mph 51% 0 in 178 W/m2
08:14 52 °F 34.3 °F 29.9 in SE 4 mph 5 mph 51% 0 in 192 W/m2
08:19 52.2 °F 34.2 °F 29.9 in ESE 6 mph 10 mph 50% 0 in 206 W/m2
08:24 52.3 °F 34.2 °F 29.9 in East 4 mph 8 mph 50% 0 in 221 W/m2
08:29 52.5 °F 34 °F 29.9 in ESE 2.9 mph 9 mph 49% 0 in 241 W/m2
08:34 52.9 °F 34.7 °F 29.9 in SE 4 mph 5 mph 50% 0 in 250 W/m2
08:39 52.9 °F 34.7 °F 29.9 in SSW 2 mph 9 mph 50% 0 in 260 W/m2
08:44 53.1 °F 34.3 °F 29.9 in NNW 4 mph 9 mph 49% 0 in 269 W/m2
08:49 53.1 °F 34.3 °F 29.9 in NE 4.9 mph 14 mph 49% 0 in 274 W/m2
08:54 53.2 °F 34.5 °F 29.9 in East 2 mph 7 mph 49% 0 in 290 W/m2
08:59 53.4 °F 34.7 °F 29.9 in NE 4.9 mph 11 mph 49% 0 in 297 W/m2
09:04 53.4 °F 34.2 °F 29.9 in ENE 4.9 mph 13 mph 48% 0 in 304 W/m2
09:09 53.8 °F 35.1 °F 29.9 in WNW 2 mph 8 mph 49% 0 in 327 W/m2
09:14 54 °F 34.7 °F 29.9 in SE 11 mph 11 mph 48% 0 in 364 W/m2
09:19 54.1 °F 34.9 °F 29.9 in North 6 mph 12 mph 48% 0 in 385 W/m2
09:25 54.7 °F 35.4 °F 29.9 in NE 2.9 mph 11 mph 48% 0 in 385 W/m2
09:30 54.9 °F 35.6 °F 29.9 in ENE 4 mph 9 mph 48% 0 in 403 W/m2
09:35 55 °F 34.7 °F 29.9 in East 0.9 mph 13 mph 46% 0 in 332 W/m2
09:40 55.2 °F 35.4 °F 29.9 in North 4.9 mph 10 mph 47% 0 in 394 W/m2
09:45 55.8 °F 35.8 °F 29.9 in East 4.9 mph 7 mph 47% 0 in 408 W/m2
09:50 56.1 °F 35.6 °F 29.9 in ENE 4 mph 12 mph 46% 0 in 381 W/m2
09:55 56.5 °F 36 °F 29.9 in East 6.9 mph 9 mph 46% 0 in 153 W/m2
10:00 56.5 °F 35.4 °F 29.9 in ENE 2.9 mph 8 mph 45% 0 in 353 W/m2
10:05 56.5 °F 36.5 °F 29.9 in East 2.9 mph 4 mph 47% 0 in 519 W/m2
10:10 57 °F 36 °F 29.9 in NE 4 mph 8 mph 45% 0 in 366 W/m2
10:15 57.2 °F 36 °F 29.9 in East 6.9 mph 16 mph 45% 0 in 348 W/m2
10:20 57 °F 36 °F 29.9 in ENE 10.1 mph 10 mph 45% 0 in 485 W/m2
10:25 57.4 °F 36.1 °F 29.9 in NNE 8.9 mph 16 mph 45% 0 in 418 W/m2
10:30 57 °F 35.2 °F 29.9 in ENE 6 mph 11 mph 44% 0 in 478 W/m2
10:36 57.4 °F 36.7 °F 29.9 in NE 6 mph 16 mph 46% 0 in 606 W/m2
10:41 58.3 °F 37 °F 29.9 in ENE 6 mph 10 mph 45% 0 in 566 W/m2
10:46 58.5 °F 36.7 °F 29.9 in NE 0.9 mph 14 mph 44% 0 in 476 W/m2
10:51 58.6 °F 36.9 °F 29.9 in NNE 4.9 mph 11 mph 44% 0 in 663 W/m2
10:56 59 °F 36.5 °F 29.9 in ENE 2 mph 16 mph 43% 0 in 647 W/m2
11:01 59 °F 36.5 °F 29.9 in ESE 4 mph 15 mph 43% 0 in 473 W/m2
11:06 59.2 °F 36.7 °F 29.9 in SE 4 mph 16 mph 43% 0 in 517 W/m2
11:11 59 °F 37 °F 29.9 in ESE 12.1 mph 12 mph 44% 0 in 369 W/m2
11:16 59.2 °F 36.7 °F 29.9 in East 2.9 mph 14 mph 43% 0 in 701 W/m2
11:21 59.5 °F 37 °F 29.9 in ESE 4.9 mph 11 mph 43% 0 in 452 W/m2
11:26 59.7 °F 37.8 °F 29.9 in NE 4.9 mph 7 mph 44% 0 in 712 W/m2
11:31 60.1 °F 37.6 °F 29.9 in NE 4 mph 10 mph 43% 0 in 554 W/m2
11:36 60.1 °F 36.9 °F 29.9 in ESE 2.9 mph 10 mph 42% 0 in 719 W/m2
11:41 60.4 °F 37.2 °F 29.9 in ESE 4 mph 13 mph 42% 0 in 714 W/m2
11:46 60.8 °F 38.1 °F 29.9 in ESE 6.9 mph 11 mph 43% 0 in 605 W/m2
11:51 60.6 °F 37.4 °F 29.9 in NE 2 mph 12 mph 42% 0 in 396 W/m2
11:56 60.4 °F 37.2 °F 29.9 in East 8.9 mph 9 mph 42% 0 in 283 W/m2
12:01 60.3 °F 37 °F 29.9 in ENE 8.9 mph 17 mph 42% 0 in 768 W/m2
12:06 61.2 °F 37.9 °F 29.9 in ENE 6 mph 12 mph 42% 0 in 814 W/m2
12:11 61.3 °F 37.4 °F 29.9 in ESE 4 mph 17 mph 41% 0 in 432 W/m2
12:16 61.3 °F 38.1 °F 29.9 in ENE 4 mph 9 mph 42% 0 in 729 W/m2
12:21 61.5 °F 37.6 °F 29.9 in ESE 10.1 mph 15 mph 41% 0 in 671 W/m2
Juneau County Weather
Compliments of Weather Underground - 2 mb